Time,TemperatureF,DewpointF,PressureIn,WindDirection,WindDirectionDegrees,WindSpeedMPH,WindSpeedGustMPH,Humidity,HourlyPrecipIn,Conditions,Clouds,dailyrainin,SoftwareType,DateUTC
2013-03-07 00:01:00,30.0,24.0,30.26,NE,44,0.0,5.0,77,0.00,,,0.00,,2013-03-07 06:01:00,
2013-03-07 00:11:00,30.0,24.0,30.26,NE,44,0.0,5.0,77,0.00,,,0.00,,2013-03-07 06:11:00,
2013-03-07 00:21:00,30.0,24.0,30.25,NE,38,2.0,5.0,77,0.00,,,0.00,,2013-03-07 06:21:00,
2013-03-07 00:32:00,30.0,24.0,30.24,NE,40,1.0,4.0,77,0.00,,,0.00,,2013-03-07 06:32:00,
2013-03-07 00:42:00,30.0,24.0,30.24,NNE,25,0.0,4.0,77,0.00,,,0.00,,2013-03-07 06:42:00,
2013-03-07 00:51:00,30.0,24.0,30.24,NNE,25,0.0,4.0,77,0.00,,,0.00,,2013-03-07 06:51:00,
2013-03-07 01:01:00,29.0,23.0,30.24,NNE,25,0.0,4.0,78,0.00,,,0.00,,2013-03-07 07:01:00,
2013-03-07 01:11:00,29.0,23.0,30.24,NNE,25,0.0,4.0,78,0.00,,,0.00,,2013-03-07 07:11:00,
2013-03-07 01:21:00,28.0,23.0,30.25,NNE,32,0.0,5.0,80,0.00,,,0.00,,2013-03-07 07:21:00,
2013-03-07 01:32:00,27.0,22.0,30.25,NNE,25,0.0,2.0,81,0.00,,,0.00,,2013-03-07 07:32:00,
2013-03-07 01:42:00,27.0,22.0,30.25,NNE,25,0.0,2.0,81,0.00,,,0.00,,2013-03-07 07:42:00,
2013-03-07 01:52:00,27.0,22.0,30.26,NNE,25,0.0,2.0,82,0.00,,,0.00,,2013-03-07 07:52:00,
2013-03-07 02:02:00,27.0,23.0,30.26,NNE,25,0.0,2.0,84,0.00,,,0.00,,2013-03-07 08:02:00,
2013-03-07 02:12:00,27.0,23.0,30.26,NNE,25,0.0,2.0,84,0.00,,,0.00,,2013-03-07 08:12:00,
2013-03-07 02:22:00,27.0,23.0,30.26,NNE,27,0.0,2.0,83,0.00,,,0.00,,2013-03-07 08:22:00,
2013-03-07 02:33:00,27.0,23.0,30.26,NNE,27,0.0,2.0,83,0.00,,,0.00,,2013-03-07 08:33:00,
2013-03-07 02:43:00,27.0,23.0,30.26,NNE,27,0.0,2.0,83,0.00,,,0.00,,2013-03-07 08:43:00,
2013-03-07 02:52:00,27.0,23.0,30.25,NNE,25,0.0,3.0,85,0.00,,,0.00,,2013-03-07 08:52:00,
2013-03-07 03:03:00,27.0,23.0,30.25,NNE,25,0.0,3.0,85,0.00,,,0.00,,2013-03-07 09:03:00,
2013-03-07 03:13:00,27.0,23.0,30.25,NNE,25,0.0,3.0,85,0.00,,,0.00,,2013-03-07 09:13:00,
2013-03-07 03:23:00,27.0,23.0,30.26,NNE,25,0.0,3.0,84,0.00,,,0.00,,2013-03-07 09:23:00,
2013-03-07 03:33:00,27.0,23.0,30.26,NNE,25,0.0,3.0,84,0.00,,,0.00,,2013-03-07 09:33:00,
2013-03-07 03:52:00,26.0,22.0,30.26,NNE,27,1.0,3.0,84,0.00,,,0.00,,2013-03-07 09:52:00,
2013-03-07 04:03:00,26.0,22.0,30.26,NNE,27,1.0,3.0,84,0.00,,,0.00,,2013-03-07 10:03:00,
2013-03-07 04:13:00,26.0,22.0,30.26,NNE,27,1.0,3.0,84,0.00,,,0.00,,2013-03-07 10:13:00,
2013-03-07 04:23:00,27.0,23.0,30.27,NNE,25,1.0,3.0,86,0.00,,,0.00,,2013-03-07 10:23:00,
2013-03-07 04:33:00,27.0,23.0,30.27,NNE,25,1.0,3.0,86,0.00,,,0.00,,2013-03-07 10:33:00,
2013-03-07 04:42:00,27.0,23.0,30.27,NNE,25,1.0,3.0,86,0.00,,,0.00,,2013-03-07 10:42:00,
2013-03-07 04:52:00,26.0,22.0,30.28,NNE,27,0.0,5.0,85,0.00,,,0.00,,2013-03-07 10:52:00,
2013-03-07 05:03:00,26.0,22.0,30.29,NNE,31,0.0,2.0,85,0.00,,,0.00,,2013-03-07 11:03:00,
2013-03-07 05:12:00,26.0,22.0,30.29,NNE,31,0.0,2.0,85,0.00,,,0.00,,2013-03-07 11:12:00,
2013-03-07 05:23:00,25.0,21.0,30.29,NNE,28,0.0,2.0,85,0.00,,,0.00,,2013-03-07 11:23:00,
2013-03-07 05:33:00,25.0,21.0,30.29,NNE,28,0.0,2.0,85,0.00,,,0.00,,2013-03-07 11:33:00,
2013-03-07 05:43:00,25.0,21.0,30.29,NNE,28,0.0,2.0,85,0.00,,,0.00,,2013-03-07 11:43:00,
2013-03-07 05:52:00,25.0,21.0,30.29,NNE,28,0.0,2.0,86,0.00,,,0.00,,2013-03-07 11:52:00,
2013-03-07 06:03:00,25.0,22.0,30.30,NNE,28,0.0,0.0,87,0.00,,,0.00,,2013-03-07 12:03:00,
2013-03-07 06:12:00,25.0,22.0,30.30,NNE,28,0.0,0.0,87,0.00,,,0.00,,2013-03-07 12:12:00,
2013-03-07 06:22:00,25.0,22.0,30.30,NNE,28,0.0,0.0,87,0.00,,,0.00,,2013-03-07 12:22:00,
2013-03-07 06:33:00,25.0,22.0,30.31,NNE,28,0.0,2.0,88,0.00,,,0.00,,2013-03-07 12:33:00,
2013-03-07 06:42:00,25.0,22.0,30.31,NNE,28,0.0,2.0,88,0.00,,,0.00,,2013-03-07 12:42:00,
2013-03-07 06:52:00,26.0,23.0,30.31,NNE,28,0.0,2.0,88,0.00,,,0.00,,2013-03-07 12:52:00,
2013-03-07 07:02:00,26.0,23.0,30.32,NNE,28,1.0,2.0,88,0.00,,,0.00,,2013-03-07 13:02:00,
2013-03-07 07:12:00,26.0,23.0,30.32,NNE,28,1.0,2.0,88,0.00,,,0.00,,2013-03-07 13:12:00,
2013-03-07 07:22:00,26.0,23.0,30.31,NNE,28,0.0,2.0,89,0.00,,,0.00,,2013-03-07 13:22:00,
2013-03-07 07:32:00,27.0,24.0,30.32,NNE,30,1.0,2.0,89,0.00,,,0.00,,2013-03-07 13:32:00,
2013-03-07 07:42:00,27.0,24.0,30.32,NNE,30,1.0,2.0,89,0.00,,,0.00,,2013-03-07 13:42:00,
2013-03-07 07:52:00,28.0,25.0,30.32,NNE,31,0.0,2.0,88,0.00,,,0.00,,2013-03-07 13:52:00,
2013-03-07 08:02:00,29.0,25.0,30.32,NNE,28,2.0,3.0,86,0.00,,,0.00,,2013-03-07 14:02:00,
2013-03-07 08:12:00,29.0,25.0,30.32,NNE,28,2.0,3.0,86,0.00,,,0.00,,2013-03-07 14:12:00,
2013-03-07 08:22:00,30.0,26.0,30.32,ENE,78,5.0,5.0,85,0.00,,,0.00,,2013-03-07 14:22:00,
2013-03-07 08:33:00,31.0,26.0,30.32,ESE,113,6.0,8.0,82,0.00,,,0.00,,2013-03-07 14:33:00,
2013-03-07 08:42:00,31.0,26.0,30.32,ESE,113,6.0,8.0,82,0.00,,,0.00,,2013-03-07 14:42:00,
2013-03-07 08:53:00,31.0,25.0,30.33,East,89,7.0,8.0,79,0.00,,,0.00,,2013-03-07 14:53:00,
2013-03-07 09:03:00,32.0,26.0,30.32,ESE,117,7.0,12.0,77,0.00,,,0.00,,2013-03-07 15:03:00,
2013-03-07 09:12:00,32.0,26.0,30.32,ESE,117,7.0,12.0,77,0.00,,,0.00,,2013-03-07 15:12:00,
2013-03-07 09:22:00,31.0,24.0,30.33,ESE,113,6.0,12.0,76,0.00,,,0.00,,2013-03-07 15:22:00,
2013-03-07 09:32:00,32.0,25.0,30.32,East,79,5.0,10.0,76,0.00,,,0.00,,2013-03-07 15:32:00,
2013-03-07 09:42:00,32.0,25.0,30.32,East,79,5.0,10.0,76,0.00,,,0.00,,2013-03-07 15:42:00,
2013-03-07 09:52:00,32.0,25.0,30.33,SE,136,5.0,10.0,75,0.00,,,0.00,,2013-03-07 15:52:00,
2013-03-07 10:02:00,33.0,26.0,30.33,East,100,6.0,12.0,75,0.00,,,0.00,,2013-03-07 16:02:00,
2013-03-07 10:12:00,33.0,26.0,30.33,East,100,6.0,12.0,75,0.00,,,0.00,,2013-03-07 16:12:00,
2013-03-07 10:23:00,33.0,25.0,30.34,ESE,120,2.0,12.0,72,0.00,,,0.00,,2013-03-07 16:23:00,
2013-03-07 10:32:00,34.0,26.0,30.33,ENE,71,4.0,11.0,71,0.00,,,0.00,,2013-03-07 16:32:00,
2013-03-07 10:43:00,34.0,26.0,30.33,ENE,71,4.0,11.0,71,0.00,,,0.00,,2013-03-07 16:43:00,
2013-03-07 10:52:00,34.0,26.0,30.33,ENE,71,4.0,11.0,71,0.00,,,0.00,,2013-03-07 16:52:00,
2013-03-07 11:02:00,35.0,26.0,30.33,SSE,148,3.0,10.0,70,0.00,,,0.00,,2013-03-07 17:02:00,
2013-03-07 11:12:00,35.0,26.0,30.33,SSE,148,3.0,10.0,70,0.00,,,0.00,,2013-03-07 17:12:00,
2013-03-07 11:22:00,35.0,26.0,30.33,East,90,3.0,10.0,68,0.00,,,0.00,,2013-03-07 17:22:00,
2013-03-07 11:32:00,36.0,26.0,30.33,ESE,106,2.0,8.0,67,0.00,,,0.00,,2013-03-07 17:32:00,
2013-03-07 11:43:00,36.0,26.0,30.33,ESE,106,2.0,8.0,67,0.00,,,0.00,,2013-03-07 17:43:00,
2013-03-07 11:53:00,37.0,27.0,30.33,NE,56,5.0,8.0,66,0.00,,,0.00,,2013-03-07 17:53:00,
2013-03-07 12:03:00,37.0,27.0,30.32,NE,45,5.0,12.0,67,0.00,,,0.00,,2013-03-07 18:03:00,
2013-03-07 12:12:00,37.0,27.0,30.32,NE,45,5.0,12.0,67,0.00,,,0.00,,2013-03-07 18:12:00,
2013-03-07 12:22:00,38.0,27.0,30.32,ENE,76,2.0,8.0,64,0.00,,,0.00,,2013-03-07 18:22:00,
2013-03-07 12:32:00,39.0,28.0,30.32,East,93,4.0,8.0,64,0.00,,,0.00,,2013-03-07 18:32:00,
2013-03-07 12:42:00,39.0,28.0,30.32,East,93,4.0,8.0,64,0.00,,,0.00,,2013-03-07 18:42:00,
2013-03-07 12:52:00,39.0,26.0,30.32,NNE,30,7.0,8.0,60,0.00,,,0.00,,2013-03-07 18:52:00,
2013-03-07 13:02:00,39.0,28.0,30.31,ENE,62,3.0,10.0,64,0.00,,,0.00,,2013-03-07 19:02:00,
2013-03-07 13:12:00,39.0,27.0,30.30,ENE,69,6.0,10.0,61,0.00,,,0.00,,2013-03-07 19:12:00,
2013-03-07 13:23:00,39.0,27.0,30.30,ENE,69,6.0,10.0,61,0.00,,,0.00,,2013-03-07 19:23:00,
2013-03-07 13:34:00,40.0,27.0,30.30,NNE,28,1.0,10.0,60,0.00,,,0.00,,2013-03-07 19:34:00,
2013-03-07 13:43:00,40.0,27.0,30.30,NNE,28,1.0,10.0,60,0.00,,,0.00,,2013-03-07 19:43:00,
2013-03-07 13:53:00,40.0,27.0,30.30,NNE,28,1.0,10.0,60,0.00,,,0.00,,2013-03-07 19:53:00,
2013-03-07 14:02:00,41.0,29.0,30.28,East,82,2.0,10.0,62,0.00,,,0.00,,2013-03-07 20:02:00,
2013-03-07 14:13:00,41.0,29.0,30.28,East,82,2.0,10.0,62,0.00,,,0.00,,2013-03-07 20:13:00,
2013-03-07 14:22:00,42.0,28.0,30.28,ENE,64,4.0,12.0,57,0.00,,,0.00,,2013-03-07 20:22:00,
2013-03-07 14:33:00,42.0,27.0,30.28,North,359,2.0,12.0,56,0.00,,,0.00,,2013-03-07 20:33:00,
2013-03-07 14:42:00,42.0,27.0,30.28,North,359,2.0,12.0,56,0.00,,,0.00,,2013-03-07 20:42:00,
2013-03-07 14:54:00,42.0,27.0,30.27,ENE,71,4.0,12.0,54,0.00,,,0.00,,2013-03-07 20:54:00,
2013-03-07 15:02:00,42.0,27.0,30.27,ESE,102,6.0,11.0,55,0.00,,,0.00,,2013-03-07 21:02:00,
2013-03-07 15:12:00,42.0,27.0,30.27,ESE,102,6.0,11.0,55,0.00,,,0.00,,2013-03-07 21:12:00,
2013-03-07 15:22:00,42.0,27.0,30.27,ESE,102,6.0,11.0,55,0.00,,,0.00,,2013-03-07 21:22:00,
2013-03-07 15:32:00,42.0,27.0,30.27,East,88,5.0,12.0,56,0.00,,,0.00,,2013-03-07 21:32:00,
2013-03-07 15:42:00,42.0,27.0,30.27,East,88,5.0,12.0,56,0.00,,,0.00,,2013-03-07 21:42:00,
2013-03-07 15:53:00,42.0,27.0,30.26,NE,44,0.0,12.0,54,0.00,,,0.00,,2013-03-07 21:53:00,
2013-03-07 16:02:00,42.0,27.0,30.26,NE,44,0.0,12.0,54,0.00,,,0.00,,2013-03-07 22:02:00,
2013-03-07 16:12:00,42.0,27.0,30.26,NE,44,0.0,12.0,54,0.00,,,0.00,,2013-03-07 22:12:00,
2013-03-07 16:22:00,42.0,27.0,30.25,ENE,72,3.0,12.0,56,0.00,,,0.00,,2013-03-07 22:22:00,
2013-03-07 16:32:00,42.0,27.0,30.26,East,92,6.0,12.0,55,0.00,,,0.00,,2013-03-07 22:32:00,
2013-03-07 16:43:00,42.0,27.0,30.26,East,92,6.0,12.0,55,0.00,,,0.00,,2013-03-07 22:43:00,
2013-03-07 16:54:00,42.0,27.0,30.26,NE,56,3.0,12.0,55,0.00,,,0.00,,2013-03-07 22:54:00,
2013-03-07 17:02:00,42.0,28.0,30.26,East,89,3.0,11.0,57,0.00,,,0.00,,2013-03-07 23:02:00,
2013-03-07 17:12:00,42.0,28.0,30.26,East,89,3.0,11.0,57,0.00,,,0.00,,2013-03-07 23:12:00,
2013-03-07 17:22:00,41.0,26.0,30.26,ENE,73,2.0,10.0,55,0.00,,,0.00,,2013-03-07 23:22:00,
2013-03-07 17:33:00,41.0,27.0,30.26,ENE,65,6.0,10.0,58,0.00,,,0.00,,2013-03-07 23:33:00,
2013-03-07 17:42:00,41.0,27.0,30.26,ENE,65,6.0,10.0,58,0.00,,,0.00,,2013-03-07 23:42:00,
2013-03-07 17:53:00,40.0,27.0,30.26,ENE,65,2.0,10.0,59,0.00,,,0.00,,2013-03-07 23:53:00,
2013-03-07 18:03:00,39.0,27.0,30.26,ENE,66,6.0,7.0,62,0.00,,,0.00,,2013-03-08 00:03:00,
2013-03-07 18:12:00,39.0,27.0,30.26,ENE,66,6.0,7.0,62,0.00,,,0.00,,2013-03-08 00:12:00,
2013-03-07 18:23:00,38.0,27.0,30.27,ENE,66,3.0,7.0,64,0.00,,,0.00,,2013-03-08 00:23:00,
2013-03-07 18:33:00,37.0,27.0,30.27,ENE,65,2.0,7.0,68,0.00,,,0.00,,2013-03-08 00:33:00,
2013-03-07 18:43:00,37.0,27.0,30.27,ENE,65,2.0,7.0,68,0.00,,,0.00,,2013-03-08 00:43:00,
2013-03-07 18:53:00,37.0,27.0,30.27,ENE,68,3.0,7.0,68,0.00,,,0.00,,2013-03-08 00:53:00,
2013-03-07 19:02:00,37.0,27.0,30.28,ENE,68,3.0,5.0,67,0.00,,,0.00,,2013-03-08 01:02:00,
2013-03-07 19:11:00,37.0,27.0,30.28,ENE,68,3.0,5.0,67,0.00,,,0.00,,2013-03-08 01:11:00,
2013-03-07 19:21:00,36.0,28.0,30.28,ENE,72,5.0,6.0,71,0.00,,,0.00,,2013-03-08 01:21:00,
2013-03-07 19:32:00,35.0,27.0,30.28,East,79,4.0,6.0,71,0.00,,,0.00,,2013-03-08 01:32:00,
2013-03-07 19:42:00,35.0,27.0,30.28,East,79,4.0,6.0,71,0.00,,,0.00,,2013-03-08 01:42:00,
2013-03-07 19:52:00,35.0,27.0,30.28,East,82,5.0,6.0,71,0.00,,,0.00,,2013-03-08 01:52:00,
2013-03-07 20:01:00,35.0,27.0,30.28,East,83,3.0,7.0,73,0.00,,,0.00,,2013-03-08 02:01:00,
2013-03-07 20:11:00,35.0,27.0,30.28,East,86,3.0,7.0,73,0.00,,,0.00,,2013-03-08 02:11:00,
2013-03-07 20:21:00,35.0,27.0,30.28,East,86,3.0,7.0,73,0.00,,,0.00,,2013-03-08 02:21:00,
2013-03-07 20:31:00,34.0,27.0,30.27,East,95,3.0,7.0,75,0.00,,,0.00,,2013-03-08 02:31:00,
2013-03-07 20:42:00,34.0,27.0,30.27,East,95,3.0,7.0,75,0.00,,,0.00,,2013-03-08 02:42:00,
2013-03-07 20:53:00,34.0,27.0,30.27,East,95,2.0,7.0,75,0.00,,,0.00,,2013-03-08 02:53:00,
2013-03-07 21:02:00,34.0,27.0,30.28,East,95,3.0,7.0,74,0.00,,,0.00,,2013-03-08 03:02:00,
2013-03-07 21:11:00,34.0,27.0,30.28,East,95,3.0,7.0,74,0.00,,,0.00,,2013-03-08 03:11:00,
2013-03-07 21:22:00,33.0,26.0,30.27,East,95,2.0,5.0,75,0.00,,,0.00,,2013-03-08 03:22:00,
2013-03-07 21:32:00,33.0,27.0,30.27,East,96,3.0,5.0,77,0.00,,,0.00,,2013-03-08 03:32:00,
2013-03-07 21:42:00,33.0,27.0,30.27,East,96,3.0,5.0,77,0.00,,,0.00,,2013-03-08 03:42:00,
2013-03-07 21:52:00,33.0,27.0,30.27,ENE,69,5.0,5.0,79,0.00,,,0.00,,2013-03-08 03:52:00,
2013-03-07 22:01:00,33.0,27.0,30.27,ENE,78,3.0,7.0,77,0.00,,,0.00,,2013-03-08 04:01:00,
2013-03-07 22:11:00,33.0,27.0,30.27,ENE,78,3.0,7.0,77,0.00,,,0.00,,2013-03-08 04:11:00,
2013-03-07 22:21:00,33.0,27.0,30.27,ENE,78,3.0,7.0,77,0.00,,,0.00,,2013-03-08 04:21:00,
2013-03-07 22:32:00,32.0,27.0,30.28,East,82,2.0,8.0,80,0.00,,,0.00,,2013-03-08 04:32:00,
2013-03-07 22:42:00,32.0,27.0,30.28,East,82,2.0,8.0,80,0.00,,,0.00,,2013-03-08 04:42:00,
2013-03-07 22:52:00,32.0,27.0,30.29,East,83,3.0,8.0,80,0.00,,,0.00,,2013-03-08 04:52:00,
2013-03-07 23:02:00,31.0,26.0,30.28,East,83,4.0,5.0,80,0.00,,,0.00,,2013-03-08 05:02:00,
2013-03-07 23:12:00,31.0,26.0,30.28,East,83,4.0,5.0,80,0.00,,,0.00,,2013-03-08 05:12:00,
2013-03-07 23:22:00,31.0,26.0,30.28,East,83,4.0,5.0,80,0.00,,,0.00,,2013-03-08 05:22:00,
2013-03-07 23:32:00,30.0,25.0,30.28,East,79,3.0,7.0,82,0.00,,,0.00,,2013-03-08 05:32:00,
2013-03-07 23:42:00,30.0,25.0,30.28,East,79,3.0,7.0,82,0.00,,,0.00,,2013-03-08 05:42:00,
2013-03-07 23:52:00,30.0,26.0,30.28,East,79,3.0,7.0,84,0.00,,,0.00,,2013-03-08 05:52:00,